| time (UTC) | temp F | wind direction | speed knots | gust knots | rain 1hr in | rain 24hr in | rain mn in | humidity % | barometer mb |
| 20260507113611 | 59 | 177 | 0.9 | 0.9 | 0.00 | 0.00 | 0.00 | 90 | 1015.0 |
| 20260507110610 | 55 | 273 | 0.0 | 0.0 | 0.00 | 0.00 | 0.00 | 90 | 1015.0 |
| 20260507103609 | 57 | 273 | 0.0 | 0.0 | 0.00 | 0.00 | 0.00 | 90 | 1015.0 |
| 20260507100608 | 55 | 289 | 0.0 | 0.0 | 0.00 | 0.00 | 0.00 | 89 | 1015.0 |
| 20260507093607 | 57 | 289 | 0.0 | 0.0 | 0.00 | 0.00 | 0.00 | 89 | 1015.0 |
| 20260507090606 | 54 | 286 | 0.9 | 0.0 | 0.00 | 0.00 | 0.00 | 88 | 1015.0 |
| 20260507083605 | 56 | 286 | 0.9 | 0.0 | 0.00 | 0.00 | 0.00 | 88 | 1014.0 |
| 20260507080604 | 58 | 286 | 0.9 | 0.0 | 0.00 | 0.00 | 0.00 | 88 | 1015.0 |
| 20260507073603 | 55 | 315 | 0.9 | 0.9 | 0.00 | 0.00 | 0.00 | 93 | 1014.0 |
| 20260507070602 | 57 | 315 | 0.9 | 0.9 | 0.00 | 0.00 | 0.00 | 93 | 1015.0 |
| 20260507063601 | 59 | 315 | 0.9 | 0.9 | 0.00 | 0.00 | 0.00 | 93 | 1015.0 |
| 20260507060600 | 56 | 299 | 0.9 | 0.9 | 0.00 | 0.00 | 0.00 | 91 | 1015.0 |
| 20260507053559 | 58 | 299 | 1.7 | 0.9 | 0.00 | 0.00 | 0.00 | 91 | 1015.0 |
| 20260507050558 | 56 | 301 | 0.9 | 0.9 | 0.00 | 0.00 | 0.00 | 88 | 1016.0 |
| 20260507043557 | 58 | 301 | 1.7 | 0.9 | 0.00 | 0.00 | 0.00 | 88 | 1016.0 |
| 20260507040556 | 56 | 299 | 2.6 | 2.6 | 0.00 | 0.00 | 0.00 | 83 | 1016.0 |
| 20260507033555 | 58 | 299 | 2.6 | 2.6 | 0.00 | 0.00 | 0.00 | 83 | 1016.0 |
| 20260507030553 | 60 | 299 | 2.6 | 2.6 | 0.00 | 0.00 | 0.00 | 83 | 1016.0 |
| 20260507023553 | 57 | 303 | 3.5 | 2.6 | 0.00 | 0.00 | 0.00 | 82 | 1015.0 |
| 20260507020551 | 59 | 303 | 3.5 | 2.6 | 0.00 | 0.00 | 0.00 | 82 | 1015.0 |
| 20260507013550 | 58 | 303 | 3.5 | 2.6 | 0.00 | 0.00 | 0.00 | 83 | 1014.0 |
| 20260507010549 | 58 | 302 | 3.5 | 4.3 | 0.00 | 0.00 | 0.00 | 85 | 1014.0 |
| 20260507003548 | 58 | 302 | 3.5 | 4.3 | 0.00 | 0.00 | 0.00 | 76 | 1014.0 |
| 20260507000547 | 59 | 286 | 3.5 | 4.3 | 0.00 | 0.00 | 0.00 | 75 | 1013.0 |
| 20260506233547 | 61 | 286 | 3.5 | 4.3 | 0.00 | 0.00 | 0.00 | 75 | 1012.0 |
| 20260506230546 | 61 | 288 | 2.6 | 4.3 | 0.00 | 0.00 | 0.00 | 74 | 1011.0 |
| 20260506223545 | 63 | 288 | 2.6 | 4.3 | 0.00 | 0.00 | 0.00 | 74 | 1011.0 |
| 20260506220544 | 65 | 288 | 2.6 | 4.3 | 0.00 | 0.00 | 0.00 | 74 | 1010.0 |
| 20260506213543 | 67 | 288 | 2.6 | 4.3 | 0.00 | 0.00 | 0.00 | 74 | 1010.0 |
| 20260506210542 | 69 | 288 | 2.6 | 4.3 | 0.00 | 0.00 | 0.00 | 74 | 1009.0 |
| 20260506203540 | 71 | 288 | 2.6 | 5.2 | 0.00 | 0.00 | 0.00 | 74 | 1009.0 |
| 20260506200540 | 70 | 290 | 0.9 | 3.5 | 0.00 | 0.00 | 0.00 | 69 | 1009.0 |
| 20260506193539 | 72 | 290 | 1.7 | 3.5 | 0.00 | 0.00 | 0.00 | 69 | 1009.0 |
| 20260506190538 | 73 | 157 | 0.9 | 3.5 | 0.00 | 0.00 | 0.00 | 72 | 1010.0 |
| 20260506183536 | 75 | 157 | 0.9 | 3.5 | 0.00 | 0.00 | 0.00 | 72 | 1010.0 |
| 20260506180535 | 77 | 157 | 0.9 | 3.5 | 0.00 | 0.00 | 0.00 | 72 | 1011.0 |
| 20260506173533 | 79 | 157 | 0.9 | 3.5 | 0.00 | 0.00 | 0.00 | 72 | 1011.0 |
| 20260506170533 | 81 | 157 | 0.9 | 3.5 | 0.00 | 0.00 | 0.00 | 72 | 1012.0 |
| 20260506163532 | 73 | 149 | 0.9 | 2.6 | 0.00 | 0.00 | 0.00 | 69 | 1012.0 |
| 20260506160531 | 75 | 149 | 0.9 | 2.6 | 0.00 | 0.00 | 0.00 | 69 | 1014.0 |
| 20260506153530 | 77 | 149 | 1.7 | 2.6 | 0.00 | 0.00 | 0.00 | 69 | 1013.0 |
| 20260506150529 | 69 | 131 | 1.7 | 1.7 | 0.00 | 0.00 | 0.00 | 80 | 1015.0 |
| 20260506143528 | 62 | 121 | 0.9 | 0.9 | 0.00 | 0.00 | 0.00 | 85 | 1015.0 |
| 20260506140526 | 64 | 121 | 1.7 | 0.9 | 0.00 | 0.00 | 0.00 | 85 | 1016.0 |
| 20260506133525 | 60 | 120 | 0.9 | 0.0 | 0.00 | 0.00 | 0.00 | 90 | 1016.0 |
| 20260506130524 | 62 | 120 | 0.9 | 0.0 | 0.00 | 0.00 | 0.00 | 90 | 1016.0 |
| 20260506123523 | 57 | 120 | 0.9 | 0.0 | 0.00 | 0.00 | 0.00 | 95 | 1016.0 |
| 20260506120522 | 59 | 192 | 0.0 | 0.0 | 0.00 | 0.00 | 0.00 | 95 | 1016.0 |